Change the Weather History Date:

Friday, May 10, 2013

  Actual Average Record
Temperature  
Mean Temperature 66 °F -  
Max Temperature 79 °F 65 °F 91 °F (1979)
Min Temperature 53 °F 42 °F 30 °F (1955)
Cooling Degree Days 1    
Growing Degree Days 16 (Base 50)    
Moisture  
Dew Point 55 °F    
Average Humidity 84    
Maximum Humidity 100    
Minimum Humidity 34    
Precipitation  
Precipitation 0.00 in - - ()
Sea Level Pressure  
Sea Level Pressure 30.27 in    
Wind  
Wind Speed 1 mph (SSE)    
Max Wind Speed 8 mph    
Max Gust Speed -    
Visibility 4 miles    
Events Fog , Rain    
Averages and records for this station are not official NWS values.
T = Trace of Precipitation, MM = Missing Value Source: NWS Daily Summary

Daily Weather History Graph

Daily Weather History Graph

Search for Another Location

Airport or City:

Trip Planner

Search our weather history database for the weather conditions in past years. The results will help you decide how hot, cold, wet, or windy it might be!

Date:

Astronomy

May. 10, 2013 Rise Set
Actual Time 5:28 AM EDT 7:56 PM EDT
Civil Twilight 4:56 AM EDT 8:28 PM EDT
Nautical Twilight 4:17 AM EDT 9:08 PM EDT
Astronomical Twilight 3:32 AM EDT 9:53 PM EDT
Moon 5:50 AM EDT (5/10) 8:44 PM EDT (5/10)
Length of Visible Light 15h 32m
Length of Day
14h 28m
New Moon, 0% of the Moon is Illuminated
May 10
New Moon
May 18
First Quarter
May 25
Full
May 31
Last Quarter
Jun 8
New

Hourly Weather History & Observations

Time (EDT) Temp. Dew Point Humidity Pressure Visibility Wind Dir Wind Speed Gust Speed Precip Events Conditions
12:00 AM 57.2 °F 55.4 °F 94% 29.92 in 0.2 mi Calm Calm - N/A Fog Fog
12:51 AM 55.9 °F 54.9 °F 96% 30.65 in 0.2 mi Calm Calm - N/A Fog Fog
1:26 AM 57.2 °F 55.4 °F 94% 29.91 in 0.8 mi Calm Calm - N/A   Mostly Cloudy
1:30 AM 57.2 °F 55.4 °F 94% 29.91 in 1.2 mi Calm Calm - N/A   Mostly Cloudy
1:33 AM 57.2 °F 55.4 °F 94% 29.91 in 2.0 mi Calm Calm - N/A   Mostly Cloudy
1:36 AM 57.2 °F 55.4 °F 94% 29.91 in 3.0 mi Calm Calm - N/A   Mostly Cloudy
1:44 AM 57.2 °F 55.4 °F 94% 29.91 in 2.5 mi Calm Calm - N/A   Scattered Clouds
1:51 AM 56.8 °F 55.9 °F 97% 30.65 in 3.0 mi Calm Calm - N/A   Mostly Cloudy
2:19 AM 55.4 °F 55.4 °F 100% 29.92 in 2.0 mi Calm Calm - N/A   Mostly Cloudy
2:51 AM 55.9 °F 55.9 °F 100% 30.64 in 0.5 mi Calm Calm - N/A Fog Fog
3:22 AM 57.2 °F 55.4 °F 94% 29.91 in 0.2 mi Calm Calm - N/A Fog Fog
3:30 AM 55.4 °F 55.4 °F 100% 29.91 in 0.8 mi Calm Calm - N/A   Overcast
3:32 AM 55.4 °F 55.4 °F 100% 29.91 in 1.2 mi Calm Calm - N/A   Overcast
3:34 AM 55.4 °F 55.4 °F 100% 29.91 in 2.5 mi Calm Calm - N/A   Overcast
3:41 AM 55.4 °F 55.4 °F 100% 29.91 in 4.0 mi Calm Calm - N/A   Mostly Cloudy
3:51 AM 55.9 °F 54.9 °F 96% 30.64 in 0.5 mi Calm Calm - N/A Fog Fog
3:59 AM 55.4 °F 55.4 °F 100% 29.92 in 0.2 mi Calm Calm - 0.00 in Fog , Rain Light Rain
4:07 AM 55.4 °F 55.4 °F 100% 29.92 in 0.2 mi Calm Calm - 0.00 in Fog , Rain Light Rain
4:25 AM 55.4 °F 55.4 °F 100% 29.92 in 0.2 mi Calm Calm - 0.00 in Fog Fog
4:51 AM 54.9 °F 54.0 °F 97% 30.66 in 0.2 mi NW 3.5 mph - 0.00 in Fog Fog
5:51 AM 54.9 °F 54.0 °F 97% 30.67 in 0.2 mi Calm Calm - 0.00 in Fog , Rain Light Rain
6:25 AM 53.6 °F 53.6 °F 100% 29.94 in 0.2 mi Calm Calm - 0.00 in Fog Fog
6:36 AM 55.4 °F 53.6 °F 94% 29.94 in 0.8 mi Calm Calm - 0.00 in   Overcast
6:41 AM 55.4 °F 53.6 °F 94% 29.94 in 1.2 mi Calm Calm - 0.00 in   Overcast
6:51 AM 54.0 °F 52.9 °F 96% 30.67 in 2.0 mi Calm Calm - 0.00 in   Mostly Cloudy
7:29 AM 55.4 °F 53.6 °F 94% 29.95 in 1.2 mi Calm Calm - 0.00 in Rain Light Rain
7:41 AM 55.4 °F 53.6 °F 94% 29.96 in 2.0 mi Calm Calm - 0.00 in Rain Light Rain
7:51 AM 54.9 °F 54.0 °F 97% 30.69 in 1.2 mi Calm Calm - 0.00 in Rain Light Rain
7:58 AM 55.4 °F 53.6 °F 94% 29.96 in 0.8 mi Calm Calm - 0.00 in   Mostly Cloudy
8:08 AM 55.4 °F 53.6 °F 94% 29.96 in 1.2 mi Calm Calm - 0.00 in   Mostly Cloudy
8:12 AM 55.4 °F 53.6 °F 94% 29.96 in 2.0 mi Calm Calm - 0.00 in Rain Light Rain
8:20 AM 55.4 °F 55.4 °F 100% 29.96 in 10.0 mi Calm Calm - 0.00 in   Mostly Cloudy
8:39 AM 57.2 °F 55.4 °F 94% 29.96 in 10.0 mi Calm Calm - 0.00 in   Mostly Cloudy
8:51 AM 57.9 °F 56.8 °F 96% 30.70 in 10.0 mi Calm Calm - 0.00 in   Scattered Clouds
9:03 AM 60.8 °F 57.2 °F 88% 29.96 in 10.0 mi Calm Calm - N/A   Mostly Cloudy
9:12 AM 60.8 °F 57.2 °F 88% 29.96 in 10.0 mi Variable 4.6 mph - N/A   Scattered Clouds
9:51 AM 63.9 °F 55.9 °F 75% 30.69 in 10.0 mi Calm Calm - N/A   Clear
10:51 AM 70.0 °F 56.8 °F 63% 30.69 in 10.0 mi NNE 4.6 mph - N/A   Partly Cloudy
11:51 AM 74.8 °F 54.9 °F 50% 30.68 in 10.0 mi Variable 4.6 mph - N/A   Scattered Clouds
12:51 PM 77.0 °F 54.0 °F 45% 30.66 in 10.0 mi SSW 4.6 mph - N/A   Clear
1:51 PM 77.9 °F 52.9 °F 42% 30.63 in 10.0 mi SSE 5.8 mph - N/A   Mostly Cloudy
2:51 PM 77.9 °F 52.9 °F 42% 30.64 in 10.0 mi Variable 3.5 mph - N/A   Mostly Cloudy
3:51 PM 79.9 °F 52.9 °F 39% 30.63 in 10.0 mi Variable 5.8 mph - N/A   Mostly Cloudy
4:51 PM 79.9 °F 50.9 °F 36% 30.62 in 10.0 mi Variable 6.9 mph - N/A   Mostly Cloudy
5:51 PM 79.9 °F 48.9 °F 34% 30.61 in 10.0 mi South 3.5 mph - N/A   Clear
6:51 PM 73.9 °F 55.9 °F 53% 30.63 in 10.0 mi SE 8.1 mph - N/A   Mostly Cloudy
7:51 PM 70.0 °F 55.9 °F 61% 30.64 in 5.0 mi SE 4.6 mph - N/A   Scattered Clouds
8:51 PM 68.0 °F 55.9 °F 65% 30.64 in 8.0 mi Calm Calm - 0.00 in   Clear
9:51 PM 63.9 °F 56.8 °F 78% 30.65 in 10.0 mi Calm Calm - N/A   Partly Cloudy
10:51 PM 64.9 °F 57.9 °F 78% 30.63 in 10.0 mi Calm Calm - N/A   Clear
11:51 PM 63.9 °F 56.8 °F 78% 30.63 in 10.0 mi Calm Calm - N/A   Clear